Location: Beneden-Haastrecht
(52.0012°N, 4.7557°E)
Time: 02:58:30
(UTC+00:00)

Cosmos 2369 Rocket - Pass Details

Date: 24 October 2020
Orbit: 827 x 854 km, 71.0° (Epoch: 24 November)

Event Time Altitude Azimuth Distance (km) Brightness Sun altitude
Rises 17:01:46 0° 223° (SW) 3,391 6.4 -6.0°
Reaches altitude 10° 17:04:14 10° 227° (SW) 2,464 5.7 -6.3°
Maximum altitude 17:09:49 58° 306° (NW) 987 2.9 -7.2°
Drops below altitude 10° 17:15:29 10° 26° (NNE) 2,493 4.3 -8.0°
Sets 17:18:00 0° 30° (NNE) 3,434 5.0 -8.4°
